Regional Weather Roundup
Issued by NWS

Home | Current Version | Previous Version | Text Only | Print | Product List | Glossary Off
Versions: 1 2 3 4 5 6 7 8 9 10 11 12 13 14 15 16 17 18 19 20 21 22 23 24 25 26 27 28 29 30 31 32 33 34 35 36 37 38 39 40 41 42 43 44 45 46 47 48 49 50

000
ASUS43 KLOT 291203
RWRIL

ILLINOIS REGIONAL WEATHER ROUNDUP
NATIONAL WEATHER SERVICE CHICAGO/ROMEOVILLE IL
700 AM CDT SAT APR 29 2017

NOTE: "FAIR" INDICATES FEW OR NO CLOUDS BELOW 12,000 FEET WITH NO
SIGNIFICANT WEATHER AND/OR OBSTRUCTIONS TO VISIBILITY.

* THESE STATIONS ARE NOT UNDER NWS QUALITY CONTROL. THEY ALSO MAY NOT
  REPORT WEATHER SUCH AS PRECIPITATION OR FOG.

ILZ001-002-007-009-015-016-024-291300-
NORTHWEST ILLINOIS

CITY           SKY/WX    TMP DP  RH WIND       PRES   REMARKS
MOLINE         CLOUDY    47  43  86 NE15      30.07F
6HR MIN TEMP:  47; 6HR MAX TEMP:  48;

STERLING*      CLOUDY    45  36  70 NE22      30.10F
$$

ILZ003-004-008-010-011-017-018-291300-
NORTH CENTRAL ILLINOIS

CITY           SKY/WX    TMP DP  RH WIND       PRES   REMARKS
ROCKFORD       CLOUDY    45  34  65 NE12      30.17S
6HR MIN TEMP:  45; 6HR MAX TEMP:  48;

FREEPORT*      CLOUDY    43  37  80 E10       30.16S
ROCHELLE*      CLOUDY    43  35  71 NE18G25   30.13S
DE KALB*       CLOUDY    44  35  70 NE15      30.14S
$$

ILZ005-006-012>014-019>023-291300-
NORTHEAST ILLINOIS

CITY           SKY/WX    TMP DP  RH WIND       PRES   REMARKS
CHICAGO-OHARE  CLOUDY    46  35  65 NE12G23   30.16R
6HR MIN TEMP:  45; 6HR MAX TEMP:  46;

CHICAGO-MIDWAY CLOUDY    46  38  73 N17G23    30.15R
6HR MIN TEMP:  45; 6HR MAX TEMP:  47; 6HR PCP: TRACE;

AURORA         CLOUDY    46  38  73 NE10G18   30.13S
6HR MIN TEMP:  46; 6HR MAX TEMP:  49;

LANSING*       CLOUDY    45  41  86 N14       30.14R
WAUKEGAN       CLOUDY    43  31  62 N16G26    30.15S
6HR MIN TEMP:  42; 6HR MAX TEMP:  44;

DUPAGE AIRPORT CLOUDY    45  37  73 NE16G25   30.14R
6HR MIN TEMP:  45; 6HR MAX TEMP:  46;

WHEELING       CLOUDY    44  35  70 NE15G28   30.17R
6HR MIN TEMP:  44; 6HR MAX TEMP:  45;

MORRIS*        CLOUDY    46  38  75 NE3       30.07F
NORTHERLY ISL    N/A     44  38  79 N17         N/A
$$

LMZ740>746-291300-
SOUTHERN LAKE MICHIGAN

STATION/POSITION SKY/WX   TEMP    WIND        PRES    VSBY  WAVE
                          AIR SEA DIR/SP/G                  HT/PER
                          (F)     (DEG/KT/KT) (MB)    (MI)  (FT/S)
SOUTHERN BUOY              42 41   20/ 16/ 19 1020.2          3/ 4
HARRISON CRIB              44      10/ 19/ 20   N/A
BURNHAM HARBOR             44      10/ 14/ 18   N/A
CALUMET HARBOR             44     350/ 14/ 17 1020.3R
BURNS HARBOR               45      20/ 19/ 22 1020.3R
MICHIGAN CITY              44      10/ 23/ 24   N/A
MICHIGAN CITY 6N           44 46                N/A           5/ 5
ST. JOSEPH                 47 49   70/ 16/ 19 1020.9R         4/ 4
$$

ILZ025>027-034>036-040-047-049-050-058-095>099-291300-
WEST-CENTRAL ILLINOIS

CITY           SKY/WX    TMP DP  RH WIND       PRES   REMARKS
QUINCY         CLOUDY    51  50  96 NE16      29.97R FOG
GALESBURG*     CLOUDY    47  44  89 NE18G29   30.03F
MACOMB*        LGT RAIN  48  46  90 NE18G24   30.03R
PITTSFIELD*    RAIN      55  55  99 N12       29.95F
$$

ILZ028>032-037-038-041>044-048-051>054-059>061-291300-
CENTRAL ILLINOIS

CITY           SKY/WX    TMP DP  RH WIND       PRES   REMARKS
BLOOMINGTON    CLOUDY    46  45  93 NE24G30   30.00F
DECATUR        LGT RAIN  49  49 100 NE15      29.98R FOG
PEORIA         CLOUDY    48  43  82 NE20G26   30.04S
6HR MIN TEMP:  48; 6HR MAX TEMP:  57;

SPRINGFIELD    LGT RAIN  52  49  89 NE10      30.02R FOG
6HR MIN TEMP:  52; 6HR MAX TEMP:  57; 6HR PCP:  0.35;

TAYLORVILLE    NOT AVBL
$$

ILZ033-039-045-046-055>057-062-063-291300-
EAST-CENTRAL ILLINOIS

CITY           SKY/WX    TMP DP  RH WIND       PRES   REMARKS
CHAMPAIGN      LGT RAIN  49  46  90 NE17G28   29.98F FOG
MATTOON        LGT RAIN  56  55  97 NE3       29.96R
$$

ILZ079-100>102-291300-
SOUTHWEST ILLINOIS

CITY           SKY/WX    TMP DP  RH WIND       PRES   REMARKS
ALTON          TSTM      55  54  94 NE14      29.90F FOG
BELLEVILLE     TSTM      57  57 100 NE9       29.90F
CAHOKIA*       LGT RAIN  58  56  93 NE7       29.89F
$$

ILZ064>066-069>071-074>076-080>082-084>086-088>090-092>094-291300-
SOUTH-CENTRAL ILLINOIS

CITY           SKY/WX    TMP DP  RH WIND       PRES   REMARKS
CARBONDALE     HVY RAIN  63  63 100 NE7       29.88F FOG
6HR MIN TEMP:  62; 6HR MAX TEMP:  63; 6HR PCP:  2.76;

CAIRO*         RAIN      73  69  89 S8        29.87R
EFFINGHAM*     TSTM      58  58 100 NW6       30.00R
MT. VERNON     TSTM      62  62 100 NE9       29.89F
CENTRALIA*     TSTM      62  62 100 N5        29.94R
SALEM*         TSTM      62  60  94 N8        29.93R
$$

ILZ067-068-072-073-078-083-087-091-291300-
SOUTHEAST ILLINOIS

CITY           SKY/WX    TMP DP  RH WIND       PRES   REMARKS
LAWRENCEVILLE  LGT RAIN  60  60 100 CALM      29.98R FOG
FLORA*         TSTM      61  60  96 NE6       29.92R
FAIRFIELD*     TSTM      62  62 100 N5        29.91F
HARRISBURG*    TSTM      64  64  97 N5        29.94R
ROBINSON*      TSTM      57  57  99 S3        29.96R
CARMI*         TSTM      64  64 100 E16       29.89F
$$

ABBREVIATIONS USED IN REMARKS
   TC - TEMPERATURE IN CELSIUS
  WCI - WIND CHILL INDEX
   HX - HEAT INDEX
  VSB - VISIBILITY
$$




USA.gov is the U.S. government's official web portal to all federal, state and local government web resources and services.